Dades meteomassalio
Diari Summary for Maig 16, 2017 Units:  Metric    English   Both
« Previous Day
Next Day »
Diari Semanal Mensual Anual Personalitzat
  Maxima: Minima: Mijana:
Temperatura: -17.8 °C -11.4 °C -5.3 °C
Rosada: -17.8 °C -14.3 °C -13 °C
Humitat: Humidity % 21 % 44 %
Velocitat del vent: 0 km/h 0 km/h 10.9 km/h
Racha vent: 0 km/h - -
Vent:- - ESE
Pressio: 0 hPa 34567.7 hPa -
Pluja: 0 mm    
Historical Graphs
 
 
Tabular Data for Maig 16, 2017
Time Temperature Dew Point Pressure Wind Wind Speed Wind Gust Humidity Rainfall Rate (Hourly) solar Conditions
-17.8 °C -17.8 °C 0 hPa Calm     Humidity % 0 mm SolarRadiationWatts/m^2 W/m2 Conditions
00:04 -6.3 °C -12.8 °C 34716.7 hPa Calm     47 % 0 mm 0.0 W/m2 CLR
00:09 -6.3 °C -12.9 °C 34716.7 hPa Calm     47 % 0 mm 0.0 W/m2 CLR
00:14 -6.4 °C -12.9 °C 34716.7 hPa Calm     47 % 0 mm 0.0 W/m2 CLR
00:19 -6.4 °C -12.9 °C 34703.1 hPa Calm     47 % 0 mm 0.0 W/m2 CLR
00:24 -6.6 °C -12.9 °C 34703.1 hPa Calm     48 % 0 mm 0.0 W/m2 CLR
00:29 -6.6 °C -12.9 °C 34703.1 hPa Calm     48 % 0 mm 0.0 W/m2 CLR
00:34 -6.7 °C -12.9 °C 34703.1 hPa Calm     49 % 0 mm 0.0 W/m2 CLR
00:39 -6.8 °C -12.9 °C 34703.1 hPa Calm     49 % 0 mm 0.0 W/m2 CLR
00:44 -6.9 °C -13 °C 34703.1 hPa Calm     49 % 0 mm 0.0 W/m2 CLR
00:49 -6.9 °C -12.7 °C 34703.1 hPa Calm     51 % 0 mm 0.0 W/m2 CLR
00:50 -7 °C -12.7 °C 34716.7 hPa Calm     51 % 0 mm 0.0 W/m2 CLR
00:55 -7.1 °C -12.7 °C 34716.7 hPa Calm     52 % 0 mm 0.0 W/m2 CLR
01:00 -7.2 °C -12.8 °C 34716.7 hPa Calm     52 % 0 mm 0.0 W/m2 CLR
01:05 -7.4 °C -12.9 °C 34716.7 hPa Calm     52 % 0 mm 0.0 W/m2 CLR
01:10 -7.4 °C -13.1 °C 34703.1 hPa Calm     52 % 0 mm 0.0 W/m2 CLR
01:15 -7.5 °C -12.9 °C 34703.1 hPa Calm     53 % 0 mm 0.0 W/m2 CLR
01:20 -7.6 °C -13 °C 34716.7 hPa Calm     53 % 0 mm 0.0 W/m2 CLR
01:25 -7.7 °C -12.8 °C 34716.7 hPa Calm     55 % 0 mm 0.0 W/m2 CLR
01:30 -7.7 °C -12.8 °C 34716.7 hPa ENE 6 km/h 6 km/h 55 % 0 mm 0.0 W/m2 CLR
01:35 -7.8 °C -13 °C 34716.7 hPa East 9 km/h 9 km/h 54 % 0 mm 0.0 W/m2 CLR
01:40 -7.8 °C -13 °C 34716.7 hPa Calm     54 % 0 mm 0.0 W/m2 CLR
01:45 -7.7 °C -13.2 °C 34716.7 hPa Calm     53 % 0 mm 0.0 W/m2 CLR
01:50 -7.7 °C -13.1 °C 34716.7 hPa Calm     53 % 0 mm 0.0 W/m2 CLR
01:55 -7.8 °C -13.2 °C 34716.7 hPa Calm     53 % 0 mm 0.0 W/m2 CLR
02:00 -7.8 °C -13.2 °C 34716.7 hPa Calm     53 % 0 mm 0.0 W/m2 CLR
02:05 -7.9 °C -12.9 °C 34716.7 hPa Calm     55 % 0 mm 0.0 W/m2 CLR
02:10 -8 °C -13.2 °C 34716.7 hPa Calm     54 % 0 mm 0.0 W/m2 CLR
02:15 -8.1 °C -13.3 °C 34716.7 hPa Calm     54 % 0 mm 0.0 W/m2 CLR
02:20 -8.1 °C -13.2 °C 34716.7 hPa Calm     55 % 0 mm 0.0 W/m2 CLR
02:25 -8.2 °C -13.2 °C 34716.7 hPa Calm     55 % 0 mm 0.0 W/m2 CLR
02:30 -8.2 °C -13 °C 34716.7 hPa Calm     57 % 0 mm 0.0 W/m2 CLR
02:35 -8.3 °C -12.8 °C 34716.7 hPa Calm     59 % 0 mm 0.0 W/m2 CLR
02:40 -8.4 °C -12.8 °C 34716.7 hPa Calm     60 % 0 mm 0.0 W/m2 CLR
02:45 -8.6 °C -12.9 °C 34716.7 hPa Calm     60 % 0 mm 0.0 W/m2 CLR
02:50 -8.7 °C -13.2 °C 34716.7 hPa Calm     59 % 0 mm 0.0 W/m2 CLR
02:55 -8.8 °C -13 °C 34716.7 hPa Calm     61 % 0 mm 0.0 W/m2 CLR
03:00 -8.9 °C -12.9 °C 34716.7 hPa Calm     62 % 0 mm 0.0 W/m2 CLR
03:05 -9 °C -12.9 °C 34716.7 hPa Calm     63 % 0 mm 0.0 W/m2 CLR
03:10 -9.1 °C -12.9 °C 34716.7 hPa Calm     64 % 0 mm 0.0 W/m2 CLR
03:15 -9.2 °C -13 °C 34716.7 hPa Calm     64 % 0 mm 0.0 W/m2 CLR
03:20 -9.3 °C -12.9 °C 34703.1 hPa Calm     65 % 0 mm 0.0 W/m2 CLR
03:25 -9.4 °C -12.9 °C 34703.1 hPa Calm     66 % 0 mm 0.0 W/m2 CLR
03:30 -9.6 °C -13 °C 34703.1 hPa Calm     66 % 0 mm 0.0 W/m2 CLR
03:35 -9.6 °C -13.1 °C 34703.1 hPa Calm     66 % 0 mm 0.0 W/m2 CLR
03:40 -9.7 °C -13 °C 34703.1 hPa Calm     67 % 0 mm 0.0 W/m2 CLR
03:45 -9.8 °C -13.1 °C 34703.1 hPa Calm     67 % 0 mm 0.0 W/m2 CLR
03:50 -9.8 °C -13.1 °C 34703.1 hPa Calm     68 % 0 mm 0.0 W/m2 CLR
03:55 -9.9 °C -13.3 °C 34703.1 hPa Calm     67 % 0 mm 0.0 W/m2 CLR
04:01 -9.9 °C -13.2 °C 34703.1 hPa Calm     68 % 0 mm 0.0 W/m2 CLR
04:06 -10 °C -13.2 °C 34703.1 hPa Calm     68 % 0 mm 0.0 W/m2 CLR
04:11 -10.1 °C -13.3 °C 34703.1 hPa Calm     68 % 0 mm 0.0 W/m2 CLR
04:16 -10.2 °C -13.3 °C 34703.1 hPa Calm     69 % 0 mm 0.0 W/m2 CLR
04:21 -10.3 °C -13.3 °C 34703.1 hPa Calm     70 % 0 mm 0.0 W/m2 CLR
04:26 -10.3 °C -13.2 °C 34703.1 hPa Calm     71 % 0 mm 0.0 W/m2 CLR
04:31 -10.4 °C -13.3 °C 34703.1 hPa Calm     71 % 0 mm 0.0 W/m2 CLR
04:36 -10.4 °C -13.4 °C 34703.1 hPa Calm     70 % 0 mm 0.0 W/m2 CLR
04:41 -10.4 °C -13.4 °C 34703.1 hPa Calm     70 % 0 mm 0.0 W/m2 CLR
04:46 -10.4 °C -13.4 °C 34703.1 hPa Calm     70 % 0 mm 0.0 W/m2 CLR
04:51 -10.4 °C -13.5 °C 34703.1 hPa Calm     69 % 0 mm 0.0 W/m2 CLR
04:56 -10.4 °C -13.5 °C 34703.1 hPa Calm     69 % 0 mm 0.0 W/m2 CLR
05:01 -10.4 °C -13.4 °C 34703.1 hPa Calm     70 % 0 mm 0.0 W/m2 CLR
05:06 -10.4 °C -13.4 °C 34703.1 hPa Calm     70 % 0 mm 0.0 W/m2 CLR
05:11 -10.5 °C -13.5 °C 34703.1 hPa Calm     70 % 0 mm 0.0 W/m2 CLR
05:16 -10.6 °C -13.4 °C 34703.1 hPa Calm     71 % 0 mm 0.0 W/m2 CLR
05:21 -10.6 °C -13.4 °C 34703.1 hPa Calm     71 % 0 mm 0.0 W/m2 CLR
05:26 -10.7 °C -13.4 °C 34703.1 hPa Calm     72 % 0 mm 0.0 W/m2 CLR
05:31 -10.8 °C -13.5 °C 34703.1 hPa Calm     72 % 0 mm 0.0 W/m2 CLR
05:36 -10.8 °C -13.5 °C 34703.1 hPa Calm     72 % 0 mm 0.0 W/m2 CLR
05:41 -10.9 °C -13.6 °C 34703.1 hPa Calm     72 % 0 mm 0.0 W/m2 CLR
05:46 -10.9 °C -13.6 °C 34703.1 hPa Calm     72 % 0 mm 0.0 W/m2 CLR
05:51 -10.9 °C -13.7 °C 34703.1 hPa Calm     72 % 0 mm 0.0 W/m2 CLR
05:56 -10.9 °C -13.7 °C 34703.1 hPa Calm     72 % 0 mm 0.0 W/m2 CLR
06:01 -10.9 °C -13.6 °C 34703.1 hPa Calm     72 % 0 mm 0.0 W/m2 CLR
06:06 -10.9 °C -13.7 °C 34703.1 hPa Calm     72 % 0 mm 0.0 W/m2 CLR
06:11 -11 °C -13.7 °C 34703.1 hPa Calm     72 % 0 mm 0.0 W/m2 CLR
06:16 -11.1 °C -13.7 °C 34703.1 hPa Calm     73 % 0 mm 0.0 W/m2 CLR
06:21 -11.2 °C -13.7 °C 34703.1 hPa Calm     74 % 0 mm 0.0 W/m2 CLR
06:26 -11.2 °C -13.7 °C 34703.1 hPa Calm     74 % 0 mm 0.0 W/m2 CLR
06:31 -11.3 °C -13.8 °C 34703.1 hPa Calm     74 % 0 mm 0.0 W/m2 OVC
06:36 -11.3 °C -13.7 °C 34703.1 hPa Calm     75 % 0 mm 0.0 W/m2 OVC
06:41 -11.4 °C -13.8 °C 34716.7 hPa Calm     75 % 0 mm 0.0 W/m2 OVC
06:46 -11.4 °C -13.9 °C 34716.7 hPa Calm     74 % 0 mm 5.0 W/m2 OVC
06:51 -11.4 °C -13.8 °C 34716.7 hPa Calm     75 % 0 mm 7.0 W/m2 BKN
06:56 -11.4 °C -13.9 °C 34716.7 hPa Calm     74 % 0 mm 11.0 W/m2 BKN
07:02 -11.4 °C -13.9 °C 34716.7 hPa Calm     74 % 0 mm 12.0 W/m2 BKN
07:06 -11.4 °C -13.9 °C 34716.7 hPa Calm     74 % 0 mm 16.0 W/m2 BKN
07:11 -11.4 °C -13.9 °C 34716.7 hPa Calm     74 % 0 mm 19.0 W/m2 BKN
07:16 -11.3 °C -13.8 °C 34716.7 hPa Calm     74 % 0 mm 26.0 W/m2 BKN
07:17 -11.3 °C -13.8 °C 34716.7 hPa Calm     74 % 0 mm 28.0 W/m2 BKN
07:22 -11.2 °C -13.7 °C 34716.7 hPa Calm     74 % 0 mm 32.0 W/m2 BKN
07:27 -11.2 °C -13.7 °C 34716.7 hPa SW 3.1 km/h   73 % 0 mm 49.0 W/m2 SCT
07:32 -11.1 °C -13.8 °C 34716.7 hPa Calm     72 % 0 mm 62.0 W/m2 SCT
07:37 -10.9 °C -13.6 °C 34716.7 hPa Calm     72 % 0 mm 74.0 W/m2 FEW
07:42 -10.8 °C -13.7 °C 34726.8 hPa Calm     71 % 0 mm 91.0 W/m2 FEW
07:47 -10.6 °C -13.6 °C 34726.8 hPa Calm     70 % 0 mm 107.0 W/m2 CLR
07:52 -10.5 °C -13.4 °C 34726.8 hPa Calm     70 % 0 mm 123.0 W/m2 CLR
07:57 -10.2 °C -13.3 °C 34726.8 hPa Calm     69 % 0 mm 134.0 W/m2 CLR
08:02 -10.1 °C -13.4 °C 34726.8 hPa Calm     67 % 0 mm 137.0 W/m2 CLR
08:07 -9.9 °C -13.3 °C 34726.8 hPa Calm     67 % 0 mm 178.0 W/m2 CLR
08:12 -9.6 °C -13.2 °C 34726.8 hPa Calm     65 % 0 mm 195.0 W/m2 CLR
08:17 -9.3 °C -13.1 °C 34716.7 hPa Calm     64 % 0 mm 214.0 W/m2 CLR
08:22 -9.1 °C -13.1 °C 34726.8 hPa Calm     62 % 0 mm 239.0 W/m2 CLR
08:27 -8.8 °C -13 °C 34716.7 hPa Calm     61 % 0 mm 255.0 W/m2 CLR
08:32 -8.6 °C -13 °C 34716.7 hPa Calm     59 % 0 mm 278.0 W/m2 CLR
08:37 -8.3 °C -12.9 °C 34726.8 hPa Calm     58 % 0 mm 295.0 W/m2 CLR
08:42 -8.1 °C -12.8 °C 34726.8 hPa Calm     57 % 0 mm 308.0 W/m2 CLR
08:47 -7.9 °C -12.8 °C 34726.8 hPa Calm     56 % 0 mm 325.0 W/m2 CLR
08:52 -7.7 °C -12.9 °C 34726.8 hPa Calm     54 % 0 mm 339.0 W/m2 CLR
08:57 -7.4 °C -12.3 °C 34726.8 hPa Calm     57 % 0 mm 371.0 W/m2 CLR
09:02 -7.3 °C -12.4 °C 34716.7 hPa Calm     55 % 0 mm 387.0 W/m2 CLR
09:07 -6.9 °C -12.2 °C 34716.7 hPa Calm     54 % 0 mm 396.0 W/m2 CLR
09:12 -6.6 °C -12.3 °C 34726.8 hPa Calm     52 % 0 mm 406.0 W/m2 CLR
09:17 -6.3 °C -12.3 °C 34726.8 hPa Calm     50 % 0 mm 420.0 W/m2 CLR
09:22 -6.1 °C -12.4 °C 34716.7 hPa Calm     48 % 0 mm 425.0 W/m2 CLR
09:27 -5.9 °C -12.1 °C 34716.7 hPa Calm     49 % 0 mm 439.0 W/m2 CLR
09:33 -5.7 °C -12.2 °C 34716.7 hPa Calm     47 % 0 mm 459.0 W/m2 CLR
09:38 -5.4 °C -12.7 °C 34716.7 hPa Calm     43 % 0 mm 446.0 W/m2 CLR
09:43 -5.1 °C -13.1 °C 34716.7 hPa Calm     40 % 0 mm 345.0 W/m2 CLR
09:48 -4.8 °C -13.2 °C 34716.7 hPa Calm     38 % 0 mm 83.0 W/m2 CLR
09:52 -4.7 °C -13.1 °C 34716.7 hPa Calm     38 % 0 mm 512.0 W/m2 CLR
09:57 -4.6 °C -13.2 °C 34716.7 hPa Calm     37 % 0 mm 485.0 W/m2 CLR
10:03 -4.4 °C -13.6 °C 34716.7 hPa Calm     35 % 0 mm 555.0 W/m2 CLR
10:08 -4.4 °C -13.7 °C 34716.7 hPa Calm     34 % 0 mm 568.0 W/m2 CLR
10:13 -4.3 °C -13.7 °C 34716.7 hPa Calm     34 % 0 mm 592.0 W/m2 CLR
10:18 -4 °C -13.7 °C 34716.7 hPa Calm     33 % 0 mm 610.0 W/m2 CLR
10:23 -3.8 °C -13.8 °C 34716.7 hPa Calm     32 % 0 mm 622.0 W/m2 CLR
10:28 -3.7 °C -13.9 °C 34703.1 hPa ENE 3.1 km/h 3.1 km/h 31 % 0 mm 719.0 W/m2 CLR
10:33 -3.6 °C -13.6 °C 34703.1 hPa Calm     32 % 0 mm 715.0 W/m2 CLR
10:38 -3.5 °C -13.7 °C 34703.1 hPa Calm   0.3 km/h 31 % 0 mm 724.0 W/m2 CLR
10:39 -3.5 °C -13.7 °C 34703.1 hPa ENE 3.1 km/h 3.1 km/h 31 % 0 mm 717.0 W/m2 CLR
10:44 -3.3 °C -13.6 °C 34703.1 hPa ENE 9 km/h 9 km/h 31 % 0 mm 740.0 W/m2 CLR
10:49 -3.3 °C -13.5 °C 34703.1 hPa East 9 km/h 9 km/h 31 % 0 mm 749.0 W/m2 CLR
10:54 -3.2 °C -13.7 °C 34703.1 hPa NE 6 km/h 6 km/h 30 % 0 mm 789.0 W/m2 CLR
10:59 -2.9 °C -13 °C 34703.1 hPa ENE 15 km/h 15 km/h 32 % 0 mm 721.0 W/m2 CLR
11:04 -2.9 °C -13.2 °C 34703.1 hPa NE 11.9 km/h 11.9 km/h 31 % 0 mm 837.0 W/m2 CLR
11:09 -2.9 °C -12.4 °C 34703.1 hPa ENE 17.9 km/h 17.9 km/h 34 % 0 mm 585.0 W/m2 CLR
11:14 -3 °C -11.6 °C 34693 hPa ENE 17.9 km/h 17.9 km/h 38 % 0 mm 424.0 W/m2 CLR
11:19 -3.2 °C -11.2 °C 34693 hPa NNE 17.9 km/h 17.9 km/h 41 % 0 mm 420.0 W/m2 CLR
11:24 -3.2 °C -11.1 °C 34693 hPa NE 15 km/h 15 km/h 41 % 0 mm 888.0 W/m2 CLR
11:29 -3 °C -11.4 °C 34693 hPa NE 20.9 km/h 20.9 km/h 39 % 0 mm 863.0 W/m2 CLR
11:34 -2.8 °C -11 °C 34693 hPa ENE 15.6 km/h 15.6 km/h 40 % 0 mm 896.0 W/m2 CLR
11:39 -2.6 °C -11.4 °C 34693 hPa ENE 9 km/h 9 km/h 37 % 0 mm 816.0 W/m2 CLR
11:44 -2.5 °C -11.6 °C 34693 hPa ENE 15 km/h   36 % 0 mm 715.0 W/m2 CLR
11:49 -2.4 °C -12.3 °C 34693 hPa SE 10.3 km/h 10.3 km/h 33 % 0 mm 830.0 W/m2 CLR
11:54 -2.4 °C -12 °C 34682.8 hPa NNE 6 km/h 6 km/h 34 % 0 mm 606.0 W/m2 CLR
11:59 -2.3 °C -11.7 °C 34682.8 hPa Calm     35 % 0 mm 798.0 W/m2 CLR
12:04 -2.2 °C -11.8 °C 34682.8 hPa NW 15.6 km/h 15.6 km/h 34 % 0 mm 838.0 W/m2 CLR
12:09 -2.3 °C -11.9 °C 34682.8 hPa Calm     34 % 0 mm 842.0 W/m2 CLR
12:14 -2.1 °C -12 °C 34682.8 hPa Calm     33 % 0 mm 849.0 W/m2 CLR
12:19 -2.1 °C -11.9 °C 34669.3 hPa North 17.9 km/h 17.9 km/h 33 % 0 mm 856.0 W/m2 CLR
12:24 -2 °C -11.9 °C 34669.3 hPa NNW 9 km/h 9 km/h 33 % 0 mm 861.0 W/m2 CLR
12:29 -2.1 °C -12 °C 34669.3 hPa Calm     33 % 0 mm 868.0 W/m2 CLR
12:34 -1.9 °C -12.1 °C 34669.3 hPa ESE 3.1 km/h 3.1 km/h 32 % 0 mm 875.0 W/m2 CLR
12:39 -1.8 °C -13.2 °C 34669.3 hPa ESE 20.9 km/h 20.9 km/h 28 % 0 mm 882.0 W/m2 CLR
12:44 -1.8 °C -12.8 °C 34669.3 hPa SE 23.8 km/h 23.8 km/h 29 % 0 mm 891.0 W/m2 CLR
12:49 -1.8 °C -12.8 °C 34669.3 hPa SE 6 km/h   29 % 0 mm 895.0 W/m2 CLR
12:54 -1.7 °C -12.7 °C 34669.3 hPa East 6 km/h 6 km/h 29 % 0 mm 911.0 W/m2 CLR
12:59 -1.7 °C -12.7 °C 34659.1 hPa Calm     29 % 0 mm 921.0 W/m2 CLR
13:04 -1.5 °C -12.6 °C 34659.1 hPa Calm     29 % 0 mm 919.0 W/m2 CLR
13:09 -1.2 °C -12.6 °C 34659.1 hPa SE 12.9 km/h 12.9 km/h 28 % 0 mm 923.0 W/m2 CLR
13:14 -1.3 °C -13.3 °C 34645.6 hPa East 6 km/h 6 km/h 26 % 0 mm 921.0 W/m2 CLR
13:19 -1.2 °C -12.9 °C 34645.6 hPa East 11.9 km/h 11.9 km/h 27 % 0 mm 921.0 W/m2 CLR
13:24 -1.2 °C -13.2 °C 34645.6 hPa SE 26.9 km/h 26.9 km/h 26 % 0 mm 925.0 W/m2 CLR
13:29 -1.2 °C -13.5 °C 34645.6 hPa East 17.9 km/h 17.9 km/h 25 % 0 mm 928.0 W/m2 CLR
13:34 -1.3 °C -13.3 °C 34635.4 hPa NE 9 km/h 9 km/h 26 % 0 mm 928.0 W/m2 CLR
13:39 -1.3 °C -13.2 °C 34635.4 hPa SE 10.3 km/h 10.3 km/h 26 % 0 mm 926.0 W/m2 CLR
13:44 -1.2 °C -13.2 °C 34635.4 hPa SE 9 km/h   26 % 0 mm 935.0 W/m2 CLR
13:49 -1.1 °C -13.4 °C 34635.4 hPa Calm     25 % 0 mm 935.0 W/m2 CLR
13:54 -1.1 °C -13.1 °C 34635.4 hPa East 18.2 km/h 18.2 km/h 26 % 0 mm 911.0 W/m2 CLR
13:59 -1.1 °C -13.7 °C 34635.4 hPa ESE 18.2 km/h 18.2 km/h 24 % 0 mm 921.0 W/m2 CLR
14:04 -1.1 °C -13.7 °C 34625.2 hPa ESE 18.2 km/h 18.2 km/h 24 % 0 mm 926.0 W/m2 CLR
14:09 -1.2 °C -13.2 °C 34635.4 hPa North 23.8 km/h 23.8 km/h 26 % 0 mm 919.0 W/m2 CLR
14:15 -1 °C -12.7 °C 34625.2 hPa ENE 9 km/h 9 km/h 27 % 0 mm 928.0 W/m2 CLR
14:20 -0.7 °C -13.4 °C 34625.2 hPa Calm   0.8 km/h 24 % 0 mm 928.0 W/m2 CLR
14:25 -0.7 °C -13.4 °C 34625.2 hPa Calm   0.3 km/h 24 % 0 mm 932.0 W/m2 CLR
14:30 -0.4 °C -13.8 °C 34611.7 hPa ESE 10.3 km/h 10.3 km/h 22 % 0 mm 933.0 W/m2 CLR
14:35 -0.4 °C -14.2 °C 34611.7 hPa ESE 12.9 km/h 12.9 km/h 21 % 0 mm 928.0 W/m2 CLR
14:40 -0.4 °C -14.3 °C 34611.7 hPa ENE 18.2 km/h 18.2 km/h 21 % 0 mm 872.0 W/m2 CLR
14:45 -0.6 °C -12.4 °C 34611.7 hPa East 17.9 km/h 17.9 km/h 27 % 0 mm 893.0 W/m2 CLR
14:50 -0.8 °C -11.7 °C 34611.7 hPa East 31.1 km/h 31.1 km/h 30 % 0 mm 875.0 W/m2 CLR
14:55 -1.1 °C -11.4 °C 34601.5 hPa ENE 46.7 km/h 46.7 km/h 32 % 0 mm 821.0 W/m2 CLR
15:00 -1.2 °C -11.2 °C 34601.5 hPa ENE 23.8 km/h 23.8 km/h 33 % 0 mm 886.0 W/m2 CLR
15:05 -1.2 °C -11.2 °C 34601.5 hPa ENE 50.7 km/h 50.7 km/h 33 % 0 mm 867.0 W/m2 CLR
15:10 -1.3 °C -11.1 °C 34601.5 hPa East 38.8 km/h 38.8 km/h 34 % 0 mm 875.0 W/m2 CLR
15:15 -1.2 °C -11.2 °C 34601.5 hPa East 29.8 km/h 29.8 km/h 33 % 0 mm 853.0 W/m2 CLR
15:20 -1.2 °C -11.5 °C 34601.5 hPa East 38.8 km/h 38.8 km/h 32 % 0 mm 851.0 W/m2 CLR
15:25 -1.3 °C -11.3 °C 34601.5 hPa ESE 44.7 km/h 44.7 km/h 33 % 0 mm 858.0 W/m2 CLR
15:30 -1.4 °C -11.3 °C 34591.4 hPa ESE 38.8 km/h 38.8 km/h 33 % 0 mm 844.0 W/m2 CLR
15:35 -1.3 °C -11.6 °C 34601.5 hPa ESE 50.7 km/h 50.7 km/h 32 % 0 mm 872.0 W/m2 CLR
15:40 -1.3 °C -11.9 °C 34591.4 hPa ESE 41.7 km/h 41.7 km/h 31 % 0 mm 851.0 W/m2 CLR
15:45 -1.4 °C -11.6 °C 34591.4 hPa ESE 47.6 km/h 47.6 km/h 32 % 0 mm 793.0 W/m2 CLR
15:50 -1.4 °C -11.9 °C 34591.4 hPa East 26.9 km/h 26.9 km/h 31 % 0 mm 756.0 W/m2 CLR
15:55 -1.3 °C -11.8 °C 34591.4 hPa ESE 35.7 km/h 35.7 km/h 31 % 0 mm 747.0 W/m2 CLR
16:00 -1.3 °C -12.1 °C 34591.4 hPa East 29.8 km/h 29.8 km/h 30 % 0 mm 765.0 W/m2 CLR
16:05 -1.2 °C -12 °C 34591.4 hPa ESE 44.7 km/h 44.7 km/h 30 % 0 mm 745.0 W/m2 CLR
16:10 -1.3 °C -12.4 °C 34591.4 hPa East 29.8 km/h 29.8 km/h 29 % 0 mm 791.0 W/m2 CLR
16:15 -1.3 °C -12.3 °C 34591.4 hPa East 29.8 km/h 29.8 km/h 29 % 0 mm 779.0 W/m2 CLR
16:20 -1.2 °C -12.3 °C 34591.4 hPa SE 23.8 km/h 23.8 km/h 29 % 0 mm 795.0 W/m2 CLR
16:25 -1.3 °C -12.4 °C 34577.8 hPa East 35.7 km/h 35.7 km/h 29 % 0 mm 784.0 W/m2 CLR
16:30 -1.3 °C -12.3 °C 34577.8 hPa ESE 38.8 km/h 38.8 km/h 29 % 0 mm 770.0 W/m2 CLR
16:35 -1.3 °C -12.7 °C 34577.8 hPa East 38.8 km/h 38.8 km/h 28 % 0 mm 761.0 W/m2 CLR
16:40 -1.5 °C -12.6 °C 34577.8 hPa East 28.5 km/h 28.5 km/h 29 % 0 mm 664.0 W/m2 CLR
16:45 -1.5 °C -12.6 °C 34577.8 hPa SE 35.7 km/h 35.7 km/h 29 % 0 mm 717.0 W/m2 CLR
16:50 -1.3 °C -12.7 °C 34577.8 hPa ESE 29.8 km/h 29.8 km/h 28 % 0 mm 708.0 W/m2 CLR
16:55 -1.3 °C -12.7 °C 34577.8 hPa SE 44.7 km/h 44.7 km/h 28 % 0 mm 708.0 W/m2 CLR
17:00 -1.3 °C -12.4 °C 34577.8 hPa SE 29.8 km/h 29.8 km/h 29 % 0 mm 708.0 W/m2 CLR
17:05 -1.3 °C -12.7 °C 34577.8 hPa ESE 32.8 km/h 32.8 km/h 28 % 0 mm 526.0 W/m2 CLR
17:10 -1.4 °C -12.5 °C 34577.8 hPa ESE 44.1 km/h 44.1 km/h 29 % 0 mm 513.0 W/m2 CLR
17:15 -1.6 °C -12.6 °C 34577.8 hPa SE 20.9 km/h 20.9 km/h 29 % 0 mm 592.0 W/m2 CLR
17:20 -1.6 °C -12.6 °C 34577.8 hPa ESE 35.7 km/h 35.7 km/h 29 % 0 mm 613.0 W/m2 CLR
17:25 -1.6 °C -12.3 °C 34577.8 hPa ESE 36.2 km/h 36.2 km/h 30 % 0 mm 429.0 W/m2 CLR
17:30 -1.6 °C -12.3 °C 34577.8 hPa SE 28.5 km/h 28.5 km/h 30 % 0 mm 445.0 W/m2 CLR
17:35 -1.7 °C -12.4 °C 34577.8 hPa East 26.9 km/h 26.9 km/h 30 % 0 mm 464.0 W/m2 CLR
17:40 -1.7 °C -12.7 °C 34577.8 hPa SE 32.8 km/h 32.8 km/h 29 % 0 mm 510.0 W/m2 CLR
17:45 -1.8 °C -12.8 °C 34577.8 hPa SE 29.8 km/h 29.8 km/h 29 % 0 mm 480.0 W/m2 CLR
17:50 -1.7 °C -12.7 °C 34577.8 hPa SSE 32.8 km/h 32.8 km/h 29 % 0 mm 522.0 W/m2 CLR
17:55 -1.7 °C -12.7 °C 34577.8 hPa East 44.1 km/h 44.1 km/h 29 % 0 mm 645.0 W/m2 CLR
18:00 -1.7 °C -12.9 °C 34567.7 hPa SE 32.8 km/h 32.8 km/h 28 % 0 mm 557.0 W/m2 CLR
18:05 -1.7 °C -13 °C 34567.7 hPa ESE 41.7 km/h 41.7 km/h 28 % 0 mm 541.0 W/m2 CLR
18:10 -1.8 °C -13.1 °C 34577.8 hPa SE 38.8 km/h 38.8 km/h 28 % 0 mm 490.0 W/m2 CLR
18:15 -1.8 °C -13.1 °C 34577.8 hPa SE 44.7 km/h 44.7 km/h 28 % 0 mm 506.0 W/m2 CLR
18:20 -1.8 °C -12.8 °C 34577.8 hPa East 29.8 km/h 29.8 km/h 29 % 0 mm 401.0 W/m2 CLR
18:25 -1.8 °C -12.8 °C 34577.8 hPa ESE 26.9 km/h 26.9 km/h 29 % 0 mm 348.0 W/m2 CLR
18:30 -2.1 °C -13 °C 34577.8 hPa ESE 26.9 km/h 26.9 km/h 29 % 0 mm 294.0 W/m2 CLR
18:35 -2.2 °C -12.8 °C 34577.8 hPa ESE 50.7 km/h 50.7 km/h 30 % 0 mm 329.0 W/m2 CLR
18:40 -2.2 °C -12.9 °C 34577.8 hPa ESE 29.8 km/h 29.8 km/h 30 % 0 mm 397.0 W/m2 CLR
18:45 -2.1 °C -12.8 °C 34577.8 hPa ESE 38.8 km/h 38.8 km/h 30 % 0 mm 450.0 W/m2 CLR
18:50 -2.1 °C -12.7 °C 34577.8 hPa SE 44.1 km/h 44.1 km/h 30 % 0 mm 434.0 W/m2 CLR
18:55 -2.1 °C -12.8 °C 34577.8 hPa SE 26.9 km/h 26.9 km/h 30 % 0 mm 392.0 W/m2 CLR
19:00 -2.2 °C -12.6 °C 34577.8 hPa SE 29.8 km/h 29.8 km/h 31 % 0 mm 301.0 W/m2 CLR
19:05 -2.3 °C -12.7 °C 34567.7 hPa ESE 29.8 km/h 29.8 km/h 31 % 0 mm 202.0 W/m2 CLR
19:10 -2.3 °C -12.7 °C 34567.7 hPa SE 35.7 km/h 35.7 km/h 31 % 0 mm 149.0 W/m2 CLR
19:15 -2.4 °C -12.7 °C 34567.7 hPa ESE 15.6 km/h 15.6 km/h 31 % 0 mm 144.0 W/m2 CLR
19:20 -2.4 °C -12.8 °C 34567.7 hPa ESE 25.9 km/h 25.9 km/h 31 % 0 mm 120.0 W/m2 CLR
19:25 -2.6 °C -12.7 °C 34567.7 hPa ESE 26.9 km/h 26.9 km/h 32 % 0 mm 118.0 W/m2 CLR
19:27 -2.6 °C -12.7 °C 34567.7 hPa SE 23.8 km/h 23.8 km/h 32 % 0 mm 120.0 W/m2 CLR
19:30 -2.7 °C -12.7 °C 34567.7 hPa ESE 25.9 km/h 25.9 km/h 32 % 0 mm 127.0 W/m2 CLR
19:35 -2.7 °C -12.6 °C 34567.7 hPa SE 23.8 km/h 23.8 km/h 33 % 0 mm 155.0 W/m2 CLR
19:40 -2.7 °C -12.6 °C 34567.7 hPa SE 26.9 km/h 26.9 km/h 33 % 0 mm 186.0 W/m2 CLR
19:45 -2.8 °C -12.6 °C 34567.7 hPa SSE 17.9 km/h 17.9 km/h 33 % 0 mm 169.0 W/m2 CLR
19:50 -2.7 °C -12.6 °C 34577.8 hPa SE 15 km/h 15 km/h 33 % 0 mm 174.0 W/m2 CLR
19:55 -2.8 °C -12.8 °C 34567.7 hPa SE 29.8 km/h 29.8 km/h 32 % 0 mm 144.0 W/m2 CLR
20:00 -2.8 °C -12.9 °C 34577.8 hPa South 29.8 km/h 29.8 km/h 32 % 0 mm 111.0 W/m2 CLR
20:05 -2.9 °C -13 °C 34577.8 hPa SSE 29.8 km/h 29.8 km/h 32 % 0 mm 88.0 W/m2 CLR
20:10 -3 °C -13 °C 34577.8 hPa SE 26.9 km/h 26.9 km/h 32 % 0 mm 72.0 W/m2 CLR
20:15 -3.1 °C -13.1 °C 34577.8 hPa SE 26.9 km/h 26.9 km/h 32 % 0 mm 69.0 W/m2 FEW
20:21 -3.2 °C -12.9 °C 34577.8 hPa SSE 23.8 km/h 23.8 km/h 33 % 0 mm 56.0 W/m2 SCT
20:26 -3.2 °C -12.7 °C 34577.8 hPa SSE 15.6 km/h 15.6 km/h 34 % 0 mm 58.0 W/m2 SCT
20:31 -3.3 °C -12.8 °C 34577.8 hPa SE 23.8 km/h 23.8 km/h 34 % 0 mm 47.0 W/m2 SCT
20:37 -3.4 °C -12.9 °C 34577.8 hPa SSE 17.9 km/h 17.9 km/h 34 % 0 mm 39.0 W/m2 BKN
20:42 -3.5 °C -12.7 °C 34577.8 hPa SSE 20.9 km/h 20.9 km/h 35 % 0 mm 33.0 W/m2 BKN
20:47 -3.6 °C -12.8 °C 34591.4 hPa SE 20.9 km/h 20.9 km/h 35 % 0 mm 26.0 W/m2 BKN
20:52 -3.7 °C -12.9 °C 34577.8 hPa SSE 17.9 km/h 17.9 km/h 35 % 0 mm 19.0 W/m2 BKN
20:57 -3.7 °C -12.7 °C 34577.8 hPa SSE 11.9 km/h 11.9 km/h 36 % 0 mm 12.0 W/m2 BKN
21:02 -3.8 °C -13 °C 34591.4 hPa SE 23.8 km/h 23.8 km/h 35 % 0 mm 7.0 W/m2 BKN
21:07 -3.8 °C -13.3 °C 34591.4 hPa South 17.9 km/h 17.9 km/h 34 % 0 mm 5.0 W/m2 OVC
21:12 -3.9 °C -13.3 °C 34591.4 hPa SSE 18.2 km/h 18.2 km/h 34 % 0 mm 0.0 W/m2 OVC
21:17 -3.9 °C -13.6 °C 34591.4 hPa SSE 20.9 km/h 20.9 km/h 33 % 0 mm 0.0 W/m2 OVC
21:22 -4 °C -13.7 °C 34591.4 hPa SSE 20.9 km/h 20.9 km/h 33 % 0 mm 0.0 W/m2 OVC
21:27 -4.1 °C -13.7 °C 34591.4 hPa SSE 15 km/h 15 km/h 33 % 0 mm 0.0 W/m2 CLR
21:32 -4.2 °C -13.6 °C 34591.4 hPa SSE 9 km/h 9 km/h 34 % 0 mm 0.0 W/m2 CLR
21:37 -4.2 °C -13.6 °C 34591.4 hPa SSE 20.9 km/h 20.9 km/h 34 % 0 mm 0.0 W/m2 CLR
21:42 -4.3 °C -13.7 °C 34591.4 hPa SSE 29.8 km/h 29.8 km/h 34 % 0 mm 0.0 W/m2 CLR
21:47 -4.3 °C -13.7 °C 34591.4 hPa SSE 20.9 km/h 20.9 km/h 34 % 0 mm 0.0 W/m2 CLR
21:52 -4.3 °C -13.7 °C 34601.5 hPa South 15.6 km/h 15.6 km/h 34 % 0 mm 0.0 W/m2 CLR
21:57 -4.4 °C -13.6 °C 34601.5 hPa SSE 9 km/h 9 km/h 35 % 0 mm 0.0 W/m2 CLR
22:02 -4.5 °C -13.6 °C 34601.5 hPa South 17.9 km/h 17.9 km/h 35 % 0 mm 0.0 W/m2 CLR
22:07 -4.6 °C -13.7 °C 34601.5 hPa SSE 11.9 km/h 11.9 km/h 35 % 0 mm 0.0 W/m2 CLR
22:12 -4.6 °C -13.4 °C 34601.5 hPa Calm     36 % 0 mm 0.0 W/m2 CLR
22:17 -4.7 °C -13.5 °C 34601.5 hPa Calm     36 % 0 mm 0.0 W/m2 CLR
22:22 -4.7 °C -13.6 °C 34601.5 hPa Calm     36 % 0 mm 0.0 W/m2 CLR
22:27 -4.8 °C -13.4 °C 34611.7 hPa Calm     37 % 0 mm 0.0 W/m2 CLR
22:32 -4.9 °C -13.6 °C 34601.5 hPa Calm     37 % 0 mm 0.0 W/m2 CLR
22:37 -5 °C -13.6 °C 34611.7 hPa Calm     37 % 0 mm 0.0 W/m2 CLR
22:42 -5.1 °C -13.4 °C 34611.7 hPa Calm     38 % 0 mm 0.0 W/m2 CLR
22:47 -5.2 °C -13.6 °C 34611.7 hPa Calm     38 % 0 mm 0.0 W/m2 CLR
22:52 -5.3 °C -13.4 °C 34611.7 hPa Calm     39 % 0 mm 0.0 W/m2 CLR
22:57 -5.4 °C -13.5 °C 34611.7 hPa Calm     39 % 0 mm 0.0 W/m2 CLR
23:02 -5.4 °C -13.4 °C 34611.7 hPa Calm     40 % 0 mm 0.0 W/m2 CLR
23:07 -5.5 °C -13.4 °C 34611.7 hPa Calm     40 % 0 mm 0.0 W/m2 CLR
23:12 -5.6 °C -13.5 °C 34625.2 hPa Calm     40 % 0 mm 0.0 W/m2 CLR
23:17 -5.7 °C -13.6 °C 34625.2 hPa Calm     40 % 0 mm 0.0 W/m2 CLR
23:22 -5.7 °C -13.6 °C 34625.2 hPa Calm     40 % 0 mm 0.0 W/m2 CLR
23:27 -5.8 °C -13.4 °C 34625.2 hPa Calm     41 % 0 mm 0.0 W/m2 CLR
23:32 -5.9 °C -13.6 °C 34625.2 hPa SSW 5.1 km/h 5.1 km/h 41 % 0 mm 0.0 W/m2 CLR
23:37 -5.9 °C -13.6 °C 34625.2 hPa Calm     41 % 0 mm 0.0 W/m2 CLR
23:42 -5.9 °C -13.6 °C 34611.7 hPa Calm     41 % 0 mm 0.0 W/m2 CLR
23:47 -5.9 °C -13.6 °C 34625.2 hPa Calm     41 % 0 mm 0.0 W/m2 CLR
23:52 -6 °C -13.7 °C 34625.2 hPa Calm     41 % 0 mm 0.0 W/m2 CLR
23:57 -6 °C -13.7 °C 34611.7 hPa Calm     41 % 0 mm 0.0 W/m2 CLR
Lo Temps de Massalio
Compliments of Weather Underground - 1.25 mb